Weather History for KMBG - September, 2013

Change the Weather History Date:

Friday, September 13, 2013

  Actual Average Record
Temperature  
Mean Temperature 67 °F 62 °F  
Max Temperature 82 °F 75 °F 96 °F (1927)
Min Temperature 51 °F 49 °F 28 °F (1949)
Degree Days  
Heating Degree Days 0 5  
Month to date heating degree days 1 48  
Since 1 July heating degree days 14 81  
Cooling Degree Days 2 2  
Month to date cooling degree days 93 44  
Year to date cooling degree days 677 625  
Growing Degree Days 17 (Base 50)    
Moisture  
Dew Point 48 °F    
Average Humidity 55    
Maximum Humidity 83    
Minimum Humidity 26    
Precipitation  
Precipitation 0.00 in 0.05 in 0.96 in (2008)
Month to date precipitation 2.73 0.63  
Year to date precipitation 16.55 14.54  
Sea Level Pressure  
Sea Level Pressure 30.05 in    
Wind  
Wind Speed 12 mph (SSE)    
Max Wind Speed 21 mph    
Max Gust Speed 26 mph    
Visibility 10 miles    
Events      
T = Trace of Precipitation, MM = Missing Value Source: NWS Daily Summary

Daily Weather History Graph

Daily Weather History Graph

Search for Another Location

Airport or City:

Trip Planner

Search our weather history database for the weather conditions in past years. The results will help you decide how hot, cold, wet, or windy it might be!

Date:

Astronomy

Sep. 13, 2013 Rise Set
Actual Time 7:17 AM CDT 7:56 PM CDT
Civil Twilight 6:48 AM CDT 8:25 PM CDT
Nautical Twilight 6:12 AM CDT 9:01 PM CDT
Astronomical Twilight 5:35 AM CDT 9:37 PM CDT
Moon 4:00 PM CDT (9/13) 12:36 AM CDT (9/13)
Length of Visible Light 13h 37m
Length of Day
12h 38m
First Quarter, 61% of the Moon is Illuminated
Sep 13
First Quarter
Sep 19
Full
Sep 26
Last Quarter
Oct 4
New
Oct 11
First Quarter

Hourly Weather History & Observations

Time (CDT) Temp. Dew Point Humidity Pressure Visibility Wind Dir Wind Speed Gust Speed Precip Events Conditions
12:52 AM 55.0 °F 48.0 °F 77% 30.19 in 10.0 mi ESE 8.1 mph - N/A   Clear
1:52 AM 54.0 °F 46.9 °F 77% 30.19 in 10.0 mi ESE 5.8 mph - N/A   Clear
2:52 AM 54.0 °F 48.9 °F 83% 30.19 in 10.0 mi SE 6.9 mph - N/A   Clear
3:52 AM 54.0 °F 48.9 °F 83% 30.17 in 10.0 mi ESE 8.1 mph - N/A   Clear
4:52 AM 53.1 °F 48.0 °F 83% 30.17 in 10.0 mi East 8.1 mph - N/A   Clear
5:52 AM 53.1 °F 48.9 °F 86% 30.17 in 10.0 mi SE 6.9 mph - N/A   Clear
6:52 AM 54.0 °F 48.9 °F 83% 30.15 in 10.0 mi SE 5.8 mph - N/A   Clear
7:52 AM 54.0 °F 48.0 °F 80% 30.16 in 10.0 mi SE 8.1 mph - N/A   Clear
8:52 AM 60.1 °F 51.1 °F 72% 30.14 in 10.0 mi SSE 11.5 mph - N/A   Clear
9:52 AM 64.0 °F 52.0 °F 65% 30.12 in 10.0 mi SSE 11.5 mph - N/A   Clear
10:52 AM 69.1 °F 51.1 °F 53% 30.11 in 10.0 mi South 12.7 mph - N/A   Clear
11:52 AM 73.9 °F 51.1 °F 45% 30.09 in 10.0 mi South 11.5 mph - N/A   Clear
12:52 PM 78.1 °F 48.9 °F 36% 30.06 in 10.0 mi South 12.7 mph 18.4 mph N/A   Clear
1:52 PM 80.1 °F 48.0 °F 32% 30.03 in 10.0 mi South 16.1 mph 20.7 mph N/A   Clear
2:52 PM 80.1 °F 46.9 °F 31% 30.01 in 10.0 mi South 13.8 mph - N/A   Clear
3:52 PM 79.0 °F 46.0 °F 31% 29.98 in 10.0 mi SSE 13.8 mph - N/A   Clear
4:52 PM 81.0 °F 44.1 °F 27% 29.95 in 10.0 mi SSE 17.3 mph 21.9 mph N/A   Clear
5:52 PM 80.1 °F 43.0 °F 27% 29.94 in 10.0 mi SSE 13.8 mph - N/A   Clear
6:52 PM 75.0 °F 46.9 °F 37% 29.92 in 10.0 mi SSE 10.4 mph - N/A   Clear
7:52 PM 71.1 °F 48.9 °F 45% 29.90 in 10.0 mi SSE 11.5 mph - N/A   Clear
8:52 PM 68.0 °F 46.9 °F 47% 29.91 in 10.0 mi SE 11.5 mph - N/A   Clear
9:52 PM 66.9 °F 46.0 °F 47% 29.89 in 10.0 mi SE 11.5 mph - N/A   Clear
10:52 PM 70.0 °F 48.9 °F 47% 29.88 in 10.0 mi SSE 16.1 mph - N/A   Overcast
11:52 PM 66.9 °F 50.0 °F 54% 29.87 in 10.0 mi SSE 15.0 mph - N/A   Clear